Location: Austin
(30.3000°N, 97.7500°W)
Time: 00:51:27
(UTC-06:00)

Spot 4 Rocket - Pass Details

Date: 04 November 2025
Orbit: 768 x 774 km, 98.8° (Epoch: 15 November)

Event Time Altitude Azimuth Distance (km) Brightness Sun altitude
Rises 19:00:07 0° 164° (SSE) 3,227 7.2 -17.5°
Reaches altitude 10° 19:02:25 10° 164° (SSE) 2,302 6.4 -18.0°
Maximum altitude 19:07:29 84° 76° (ENE) 777 3.9 -19.1°
Drops below altitude 10° 19:12:35 10° 349° (NNW) 2,312 6.5 -20.2°
Sets 19:14:54 0° 348° (NNW) 3,241 7.3 -20.7°
